Location: Dehesa de la Cepeda
(40.6574°N, 4.3013°W)
Time: 20:48:18
(UTC+00:00)

Vanguard 2 Rocket - Pass Details

Date: 13 August 2021
Orbit: 556 x 3324 km, 32.9° (Epoch: 19 September)

Event Time Altitude Azimuth Distance (km) Brightness Sun altitude
Rises 04:52:37 0° 251° (WSW) 5,049 - -6.6°
Exits shadow 04:55:34 - 248° (WSW) 4,021 9.5 -6.1°
Reaches altitude 10° 04:56:49 10° 246° (WSW) 3,583 9.2 -5.9°
Maximum altitude 05:04:30 41° 180° (S) 1,375 7.7 -4.6°
Drops below altitude 10° 05:09:20 10° 110° (ESE) 2,238 9.7 -3.7°
Sets 05:11:24 0° 102° (ESE) 2,989 10.6 -3.4°
